Change the Weather History Date:

Saturday, September 29, 2012

  Actual Average Record
Temperature  
Mean Temperature 60 °F -  
Max Temperature 66 °F 67 °F 77 °F (2005)
Min Temperature 55 °F 51 °F 46 °F (1998)
Degree Days  
Heating Degree Days 4    
Growing Degree Days 10 (Base 50)    
Moisture  
Dew Point 56 °F    
Average Humidity 82    
Maximum Humidity 100    
Minimum Humidity 64    
Precipitation  
Precipitation 0.07 in - - ()
Sea Level Pressure  
Sea Level Pressure 29.92 in    
Wind  
Wind Speed 6 mph (NW)    
Max Wind Speed 10 mph    
Max Gust Speed -    
Visibility 9 miles    
Events      
Averages and records for this station are not official NWS values.
T = Trace of Precipitation, MM = Missing Value Source: NWS Daily Summary

Daily Weather History Graph

Daily Weather History Graph

Search for Another Location

Airport or City:

Trip Planner

Search our weather history database for the weather conditions in past years. The results will help you decide how hot, cold, wet, or windy it might be!

Date:

Astronomy

Sep. 29, 2012 Rise Set
Actual Time 6:51 AM EDT 6:41 PM EDT
Civil Twilight 6:24 AM EDT 7:08 PM EDT
Nautical Twilight 5:52 AM EDT 7:39 PM EDT
Astronomical Twilight 5:20 AM EDT 8:11 PM EDT
Moon 6:12 PM EDT (9/29) 6:19 AM EDT (9/29)
Length of Visible Light 12h 44m
Length of Day
11h 49m
Full, 100% of the Moon is Illuminated
Sep 29
Full
Sep 29
Full
Oct 8
Last Quarter
Oct 15
New
Oct 21
First Quarter

Hourly Weather History & Observations

Time (EDT) Temp. Dew Point Humidity Pressure Visibility Wind Dir Wind Speed Gust Speed Precip Events Conditions
12:15 AM 64.4 °F 62.6 °F 94% 29.94 in 5.0 mi NE 4.6 mph - N/A   Overcast
12:35 AM 64.4 °F 62.6 °F 94% 29.94 in 5.0 mi Calm Calm - 0.03 in   Overcast
12:55 AM 64.4 °F 62.6 °F 94% 29.93 in 5.0 mi NNE 3.5 mph - 0.04 in   Overcast
1:15 AM 64.4 °F 62.6 °F 94% 29.93 in 7.0 mi NNE 6.9 mph - 0.01 in   Overcast
1:35 AM 64.4 °F 62.6 °F 94% 29.93 in 5.0 mi North 6.9 mph - 0.02 in   Overcast
1:55 AM 62.6 °F 62.6 °F 100% 29.93 in 7.0 mi North 6.9 mph - 0.02 in   Overcast
2:15 AM 62.6 °F 60.8 °F 94% 29.93 in 8.0 mi NNW 9.2 mph - N/A   Overcast
2:35 AM 62.6 °F 60.8 °F 94% 29.92 in 6.0 mi NNW 6.9 mph - N/A   Overcast
2:55 AM 60.8 °F 60.8 °F 100% 29.92 in 6.0 mi North 9.2 mph - N/A   Overcast
3:15 AM 60.8 °F 59.0 °F 94% 29.93 in 7.0 mi NNW 6.9 mph - N/A   Overcast
3:35 AM 60.8 °F 59.0 °F 94% 29.92 in 10.0 mi NNW 5.8 mph - N/A   Overcast
3:55 AM 60.8 °F 59.0 °F 94% 29.92 in 9.0 mi NNW 5.8 mph - N/A   Overcast
4:15 AM 60.8 °F 59.0 °F 94% 29.92 in 10.0 mi NW 5.8 mph - 0.01 in   Overcast
4:35 AM 60.8 °F 57.2 °F 88% 29.93 in 10.0 mi WNW 6.9 mph - 0.01 in   Overcast
4:55 AM 60.8 °F 57.2 °F 88% 29.92 in 10.0 mi NW 5.8 mph - 0.01 in   Overcast
5:15 AM 60.8 °F 57.2 °F 88% 29.92 in 10.0 mi NW 4.6 mph - N/A   Overcast
5:35 AM 60.8 °F 57.2 °F 88% 29.93 in 10.0 mi NW 5.8 mph - N/A   Overcast
5:55 AM 60.8 °F 57.2 °F 88% 29.93 in 10.0 mi NW 6.9 mph - N/A   Overcast
6:15 AM 59.0 °F 57.2 °F 94% 29.93 in 10.0 mi WNW 8.1 mph - N/A   Overcast
6:35 AM 59.0 °F 57.2 °F 94% 29.93 in 10.0 mi NW 8.1 mph - N/A   Overcast
6:55 AM 59.0 °F 55.4 °F 88% 29.92 in 10.0 mi NW 6.9 mph - N/A   Overcast
7:15 AM 59.0 °F 55.4 °F 88% 29.93 in 10.0 mi WNW 8.1 mph - N/A   Overcast
7:35 AM 57.2 °F 55.4 °F 94% 29.93 in 10.0 mi NW 8.1 mph - N/A   Overcast
7:55 AM 59.0 °F 55.4 °F 88% 29.93 in 10.0 mi NW 6.9 mph - N/A   Overcast
8:15 AM 60.8 °F 57.2 °F 88% 29.93 in 10.0 mi NW 8.1 mph - N/A   Mostly Cloudy
8:35 AM 60.8 °F 57.2 °F 88% 29.94 in 10.0 mi NW 8.1 mph - N/A   Overcast
8:55 AM 60.8 °F 55.4 °F 82% 29.94 in 10.0 mi NW 10.4 mph - N/A   Overcast
9:15 AM 60.8 °F 57.2 °F 88% 29.94 in 10.0 mi NW 8.1 mph - N/A   Overcast
9:35 AM 60.8 °F 55.4 °F 82% 29.95 in 10.0 mi NW 9.2 mph - N/A   Overcast
9:55 AM 60.8 °F 55.4 °F 82% 29.95 in 10.0 mi NW 10.4 mph - N/A   Overcast
10:15 AM 62.6 °F 55.4 °F 77% 29.94 in 10.0 mi NW 9.2 mph - N/A   Overcast
10:35 AM 62.6 °F 55.4 °F 77% 29.94 in 10.0 mi NNW 8.1 mph - N/A   Overcast
10:55 AM 62.6 °F 53.6 °F 72% 29.94 in 10.0 mi NNW 9.2 mph - N/A   Overcast
11:15 AM 62.6 °F 53.6 °F 72% 29.95 in 10.0 mi NW 8.1 mph - N/A   Overcast
11:35 AM 62.6 °F 55.4 °F 77% 29.95 in 10.0 mi NW 4.6 mph - N/A   Overcast
11:55 AM 62.6 °F 55.4 °F 77% 29.94 in 10.0 mi NNW 8.1 mph - N/A   Overcast
12:15 PM 64.4 °F 55.4 °F 73% 29.94 in 10.0 mi NW 3.5 mph - N/A   Overcast
12:35 PM 64.4 °F 53.6 °F 68% 29.93 in 10.0 mi NW 8.1 mph - N/A   Overcast
12:55 PM 62.6 °F 53.6 °F 72% 29.93 in 10.0 mi NW 8.1 mph - N/A   Overcast
1:15 PM 64.4 °F 53.6 °F 68% 29.92 in 10.0 mi WNW 5.8 mph - N/A   Overcast
1:35 PM 64.4 °F 55.4 °F 73% 29.91 in 10.0 mi NW 4.6 mph - N/A   Overcast
1:55 PM 64.4 °F 53.6 °F 68% 29.90 in 10.0 mi West 8.1 mph - N/A   Overcast
2:15 PM 64.4 °F 53.6 °F 68% 29.90 in 10.0 mi WNW 9.2 mph - N/A   Overcast
2:35 PM 64.4 °F 53.6 °F 68% 29.90 in 10.0 mi NW 5.8 mph - N/A   Mostly Cloudy
2:55 PM 64.4 °F 53.6 °F 68% 29.90 in 10.0 mi WSW 8.1 mph - N/A   Mostly Cloudy
3:15 PM 64.4 °F 53.6 °F 68% 29.89 in 10.0 mi West 8.1 mph - N/A   Mostly Cloudy
3:35 PM 66.2 °F 53.6 °F 64% 29.89 in 10.0 mi WNW 9.2 mph - N/A   Overcast
3:55 PM 66.2 °F 53.6 °F 64% 29.89 in 10.0 mi West 9.2 mph - N/A   Mostly Cloudy
4:15 PM 64.4 °F 53.6 °F 68% 29.89 in 10.0 mi West 6.9 mph - N/A   Mostly Cloudy
4:35 PM 64.4 °F 53.6 °F 68% 29.89 in 10.0 mi West 5.8 mph - N/A   Partly Cloudy
4:55 PM 64.4 °F 53.6 °F 68% 29.88 in 10.0 mi West 4.6 mph - N/A   Scattered Clouds
5:15 PM 66.2 °F 53.6 °F 64% 29.89 in 10.0 mi West 6.9 mph - N/A   Partly Cloudy
5:35 PM 66.2 °F 53.6 °F 64% 29.89 in 10.0 mi NNW 10.4 mph - N/A   Mostly Cloudy
5:55 PM 64.4 °F 53.6 °F 68% 29.89 in 10.0 mi WNW 6.9 mph - N/A   Overcast
6:15 PM 62.6 °F 53.6 °F 72% 29.90 in 10.0 mi WNW 4.6 mph - N/A   Mostly Cloudy
6:35 PM 62.6 °F 53.6 °F 72% 29.90 in 10.0 mi WNW 4.6 mph - N/A   Overcast
6:55 PM 62.6 °F 53.6 °F 72% 29.90 in 10.0 mi West 3.5 mph - N/A   Overcast
7:15 PM 60.8 °F 53.6 °F 77% 29.91 in 10.0 mi West 4.6 mph - N/A   Overcast
7:35 PM 60.8 °F 53.6 °F 77% 29.91 in 10.0 mi West 4.6 mph - N/A   Mostly Cloudy
7:55 PM 59.0 °F 53.6 °F 82% 29.90 in 10.0 mi West 4.6 mph - N/A   Overcast
8:15 PM 59.0 °F 53.6 °F 82% 29.90 in 10.0 mi Calm Calm - N/A   Mostly Cloudy
8:35 PM 59.0 °F 53.6 °F 82% 29.91 in 10.0 mi Calm Calm - N/A   Clear
8:55 PM 57.2 °F 53.6 °F 88% 29.90 in 10.0 mi Calm Calm - N/A   Clear
9:15 PM 57.2 °F 53.6 °F 88% 29.90 in 10.0 mi WNW 4.6 mph - N/A   Clear
9:35 PM 57.2 °F 53.6 °F 88% 29.89 in 10.0 mi NW 3.5 mph - N/A   Clear
9:55 PM 57.2 °F 53.6 °F 88% 29.90 in 10.0 mi Calm Calm - N/A   Clear
10:15 PM 55.4 °F 53.6 °F 94% 29.90 in 10.0 mi Calm Calm - N/A   Clear
10:35 PM 55.4 °F 53.6 °F 94% 29.90 in 10.0 mi Calm Calm - N/A   Partly Cloudy
10:55 PM 57.2 °F 53.6 °F 88% 29.90 in 10.0 mi Calm Calm - N/A   Mostly Cloudy
11:15 PM 57.2 °F 53.6 °F 88% 29.90 in 10.0 mi WNW 4.6 mph - N/A   Mostly Cloudy
11:35 PM 55.4 °F 53.6 °F 94% 29.89 in 10.0 mi WNW 4.6 mph - N/A   Scattered Clouds
11:55 PM 55.4 °F 53.6 °F 94% 29.89 in 10.0 mi WNW 3.5 mph - N/A   Mostly Cloudy